"2010-10-18 00:00:00",256621,1.531,47.71,5.772,0.228,17.77,107.3263,18.03,18.87,20.15,0,110.6,13.27,18.85,9.7
"2010-10-18 00:00:30",256622,1.916,39.76,9.56,0.213,17.77,107.3257,18.03,18.88,20.12,0,110.6,13.27,18.85,1.8
"2010-10-18 00:01:00",256623,2.194,46.64,4.284,0.347,17.77,107.3269,18.03,18.87,20.16,0,110.6,13.27,18.85,8.6
"2010-10-18 00:01:30",256624,1.803,41.16,4.031,0.131,17.75,107.3284,18.04,18.88,20.28,0,110.6,13.27,18.85,3.2
"2010-10-18 00:02:00",256625,1.769,44.12,2.944,0.099,17.85,107.3266,18.03,18.89,20.38,0,110.6,13.27,18.85,6.1
"2010-10-18 00:02:30",256626,2.057,45.34,2.329,0.156,17.76,107.3284,18.04,18.89,20.39,0,110.6,13.27,18.85,7.3
"2010-10-18 00:03:00",256627,2.054,45.54,3.064,0.115,17.76,107.3305,18.04,18.87,20.34,0,110.6,13.27,18.86,7.5
"2010-10-18 00:03:30",256628,1.826,54.87,5.596,0.235,17.73,107.3302,18.04,18.9,20.3,0,110.6,13.27,18.86,16.9
"2010-10-18 00:04:00",256629,1.602,56.06,5.498,0.261,17.78,107.3299,18.04,18.88,20.3,0,110.6,13.27,18.86,18.1
"2010-10-18 00:04:30",256630,1.981,42.13,2.524,0.337,17.8,107.3299,18.04,18.89,20.31,0,110.6,13.27,18.86,4.1
"2010-10-18 00:05:00",256631,1.595,40.27,5.817,0.218,17.83,107.3324,18.05,18.89,20.36,0,110.6,13.27,18.86,2.3
"2010-10-18 00:05:30",256632,1.757,41.36,3.82,0.121,17.88,107.3305,18.04,18.89,20.27,0,110.6,13.27,18.86,3.4
"2010-10-18 00:06:00",256633,1.336,31.44,3.718,0.156,17.88,107.3332,18.05,18.9,20.24,0,110.6,13.27,18.86,353.4
"2010-10-18 00:06:30",256634,1.196,29.51,3.989,0.15,17.93,107.3361,18.06,18.89,20.22,0,110.6,13.26,18.87,351.5
"2010-10-18 00:07:00",256635,1.309,31.06,5.022,0.154,17.88,107.3414,18.07,18.91,20.23,0,110.6,13.26,18.89,353.1
"2010-10-18 00:07:30",256636,1.324,37.63,2.299,0.088,17.83,107.342,18.07,18.9,20.26,0,110.6,13.26,18.89,359.6
"2010-10-18 00:08:00",256637,0.964,33.48,4.955,0.132,17.82,107.3389,18.06,18.92,20.32,0,110.6,13.26,18.88,355.5
"2010-10-18 00:08:30",256638,1.125,23.49,3.77,0.109,17.91,107.3335,18.05,18.93,20.32,0,110.6,13.26,18.87,345.5
"2010-10-18 00:09:00",256639,1.036,25.4,3.064,0.202,17.85,107.3335,18.05,18.91,20.41,0,110.6,13.26,18.87,347.4
"2010-10-18 00:09:30",256640,1.22,23.37,4.149,0.15,17.87,107.3333,18.05,18.9,20.37,0,110.6,13.26,18.86,345.4
"2010-10-18 00:10:00",256641,1.314,35.34,5.202,0.188,17.93,107.3333,18.05,18.9,20.41,0,110.6,13.26,18.86,357.3
"2010-10-18 00:10:30",256642,1.158,33.05,6.534,0.187,17.87,107.3335,18.05,18.89,20.37,0,110.6,13.26,18.87,355.0
"2010-10-18 00:11:00",256643,1.14,42.27,2.859,0.11,17.74,107.3335,18.05,18.89,20.43,0,110.6,13.26,18.87,4.3
"2010-10-18 00:11:30",256644,0.76,27.4,5.494,0.11,17.96,107.3335,18.05,18.89,20.42,0,110.6,13.26,18.87,349.4
"2010-10-18 00:12:00",256645,0.763,28.19,4.1,0.104,18,107.3335,18.05,18.9,20.36,0,110.6,13.27,18.87,350.2
"2010-10-18 00:12:30",256646,0.791,27.42,3.97,0.097,18,107.3335,18.05,18.89,20.13,0,110.6,13.27,18.87,349.4
"2010-10-18 00:13:00",256647,0.711,31.14,4.071,0.115,18.04,107.3335,18.05,18.9,19.98,0,110.6,13.27,18.87,353.1
"2010-10-18 00:13:30",256648,0.551,17.26,11.76,0.224,17.92,107.3341,18.05,18.9,20.05,0,110.6,13.27,18.87,339.3
"2010-10-18 00:14:00",256649,0.191,7.201,11.99,0.127,17.9,107.3335,18.05,18.92,20.13,0,110.6,13.27,18.87,329.2
"2010-10-18 00:14:30",256650,0.296,10.09,17.97,0.196,17.89,107.3335,18.05,18.91,20.22,0,110.6,13.27,18.87,332.1
"2010-10-18 00:15:00",256651,0.299,10.28,10.28,0.192,17.87,107.3335,18.05,18.89,20.24,0,110.6,13.27,18.87,332.3
"2010-10-18 00:15:30",256652,0.733,16.35,6.926,0.288,17.88,107.3335,18.05,18.89,20.41,0,110.6,13.27,18.87,338.4
"2010-10-18 00:16:00",256653,0.774,14.23,6.512,0.216,17.76,107.333,18.05,18.9,20.56,0,110.6,13.27,18.86,336.2
"2010-10-18 00:16:30",256654,0.491,9.94,12.8,0.238,17.82,107.3175,18.01,18.88,20.61,0,110.6,13.27,18.82,331.9
"2010-10-18 00:17:00",256655,0.11,6.524,17.57,0.209,17.78,107.304,17.97,18.88,20.63,0,110.6,13.27,18.79,328.5
"2010-10-18 00:17:30",256656,0.152,356.4,30.65,0.176,17.76,107.2998,17.96,18.87,20.67,0,110.6,13.27,18.78,318.4
"2010-10-18 00:18:00",256657,0.272,4.337,28.44,0.327,17.74,107.2998,17.96,18.84,20.75,0,110.6,13.27,18.78,326.3
"2010-10-18 00:18:30",256658,0.349,355,22.08,0.254,17.66,107.2989,17.96,18.84,20.86,0,110.6,13.27,18.78,317.0
"2010-10-18 00:19:00",256659,0.845,310.4,17.43,0.258,17.48,107.2637,17.87,18.81,21.08,0,110.6,13.27,18.69,272.4
"2010-10-18 00:19:30",256660,0.931,287.7,6.801,0.078,17.55,107.2339,17.79,18.79,21.09,0,110.6,13.27,18.61,249.7
"2010-10-18 00:20:00",256661,0.854,285.1,5.054,0.094,17.48,107.2172,17.75,18.74,21.13,0,110.6,13.27,18.57,247.1
"2010-10-18 00:20:30",256662,0.558,302.2,7.961,0.222,17.61,107.1984,17.7,18.7,21.18,0,110.6,13.27,18.52,264.2
"2010-10-18 00:21:00",256663,0.413,289.6,13.74,0.209,17.55,107.1961,17.7,18.66,21.24,0,110.6,13.27,18.51,251.6
"2010-10-18 00:21:30",256664,0.599,267.7,7.676,0.138,17.61,107.177,17.65,18.63,21.3,0,110.6,13.27,18.46,229.7
"2010-10-18 00:22:00",256665,0.281,265.4,7.53,0.092,17.58,107.1649,17.62,18.6,21.45,0,110.6,13.27,18.43,227.4
"2010-10-18 00:22:30",256666,0.432,263,10.86,0.204,17.48,107.1626,17.61,18.58,21.55,0,110.6,13.27,18.43,225.0
"2010-10-18 00:23:00",256667,1.148,279.3,13.54,0.355,17.66,107.1375,17.55,18.54,21.53,0,110.6,13.27,18.36,241.3
"2010-10-18 00:23:30",256668,2.064,298.6,5.461,0.252,17.99,107.1604,17.61,18.51,21.13,0,110.6,13.27,18.42,260.6
"2010-10-18 00:24:00",256669,1.957,298.4,4.038,0.203,17.92,107.1944,17.69,18.54,21.14,0,110.6,13.27,18.51,260.4
"2010-10-18 00:24:30",256670,1.927,294.9,8.34,0.127,17.89,107.2088,17.73,18.56,21.09,0,110.6,13.27,18.54,256.9
"2010-10-18 00:25:00",256671,2.598,313.6,5.539,0.206,17.81,107.2319,17.79,18.58,21.03,0,110.6,13.27,18.60,275.6
"2010-10-18 00:25:30",256672,2.859,311.6,5.068,0.173,17.83,107.2322,17.79,18.59,21.02,0,110.6,13.27,18.60,273.6
"2010-10-18 00:26:00",256673,3.317,314.2,2.594,0.152,17.79,107.2322,17.79,18.61,21.14,0,110.6,13.27,18.60,276.2
"2010-10-18 00:26:30",256674,3.555,309.9,1.396,0.192,17.75,107.2322,17.79,18.64,21.2,0,110.6,13.27,18.60,271.9
"2010-10-18 00:27:00",256675,3.788,307.3,1.541,0.091,17.7,107.2322,17.79,18.62,21.13,0,110.6,13.27,18.60,269.3
"2010-10-18 00:27:30",256676,4.022,304.9,2.239,0.087,17.71,107.2268,17.78,18.61,21.38,0,110.6,13.27,18.59,266.9
"2010-10-18 00:28:00",256677,4.719,311.9,1.54,0.121,17.66,107.2015,17.71,18.62,21.86,0,110.6,13.27,18.53,273.9
"2010-10-18 00:28:30",256678,4.691,311.7,0.732,0.111,17.66,107.1984,17.7,18.58,21.99,0,110.6,13.28,18.52,273.7
"2010-10-18 00:29:00",256679,4.856,312.8,1.164,0.113,17.74,107.1964,17.7,18.58,21.97,0,110.6,13.28,18.51,274.8
"2010-10-18 00:29:30",256680,4.724,314.2,1.259,0.184,17.64,107.186,17.67,18.56,22.04,0,110.6,13.28,18.49,276.2
"2010-10-18 00:30:00",256681,4.981,313,2.528,0.165,17.71,107.1665,17.62,18.55,22.06,0,110.6,13.28,18.44,275.0
"2010-10-18 00:30:30",256682,5.07,309.9,1.155,0.091,17.72,107.1646,17.62,18.55,22.09,0,110.6,13.28,18.43,271.9
"2010-10-18 00:31:00",256683,5.12,311.2,0.947,0.088,17.65,107.1646,17.62,18.54,22.22,0,110.6,13.28,18.43,273.2
"2010-10-18 00:31:30",256684,5.086,312.2,1.92,0.256,17.59,107.1646,17.62,18.51,22.57,0,110.6,13.28,18.43,274.2
"2010-10-18 00:32:00",256685,4.511,304.9,2.693,0.289,17.53,107.1401,17.55,18.49,22.8,0,110.6,13.28,18.37,266.9
"2010-10-18 00:32:30",256686,4.945,304.9,2.035,0.201,17.65,107.1308,17.53,18.48,22.79,0,110.6,13.28,18.34,266.9
"2010-10-18 00:33:00",256687,5.397,307.3,1.243,0.33,17.68,107.1308,17.53,18.45,22.8,0,110.6,13.28,18.34,269.3
"2010-10-18 00:33:30",256688,5.427,302.7,4.699,0.338,17.7,107.1308,17.53,18.46,22.89,0,110.6,13.28,18.34,264.7
"2010-10-18 00:34:00",256689,5.788,303.1,5.004,0.343,17.72,107.1308,17.53,18.44,22.87,0,110.6,13.28,18.34,265.1
"2010-10-18 00:34:30",256690,5.189,299.8,4.456,0.69,17.6,107.1308,17.53,18.47,22.92,0,110.6,13.28,18.34,261.8
"2010-10-18 00:35:00",256691,4.249,300.6,3.135,0.131,17.51,107.1305,17.53,18.43,23.17,0,110.6,13.28,18.34,262.6
"2010-10-18 00:35:30",256692,5.043,302.1,3.271,0.529,17.4,107.1057,17.47,18.42,23.45,0,110.6,13.28,18.28,264.1
"2010-10-18 00:36:00",256693,6.091,302,5.281,0.49,17.39,107.0933,17.43,18.37,23.62,0,110.6,13.28,18.25,264.0
"2010-10-18 00:36:30",256694,7.133,301.7,2.757,0.225,17.74,107.0725,17.38,18.34,23.38,0,110.6,13.28,18.19,263.7
"2010-10-18 00:37:00",256695,7.41,303.9,1.117,0.282,17.66,107.09,17.43,18.35,23.37,0,110.6,13.28,18.24,265.9
"2010-10-18 00:37:30",256696,7.25,304.5,1.667,0.139,17.69,107.0961,17.44,18.34,23.32,0,110.6,13.28,18.25,266.5
"2010-10-18 00:38:00",256697,7.001,305,1.43,0.199,17.58,107.097,17.44,18.35,23.53,0,110.6,13.28,18.26,267.0
"2010-10-18 00:38:30",256698,6.471,308.4,1.781,0.184,17.64,107.0967,17.44,18.34,23.46,0,110.6,13.28,18.26,270.4
"2010-10-18 00:39:00",256699,6.225,306.2,1.703,0.223,17.7,107.097,17.44,18.34,23.31,0,110.6,13.28,18.26,268.2
"2010-10-18 00:39:30",256700,6.127,309.5,1.794,0.332,17.67,107.097,17.44,18.35,23.29,0,110.6,13.28,18.26,271.5
"2010-10-18 00:40:00",256701,6.859,306.5,1.581,0.259,17.63,107.097,17.44,18.36,23.43,0,110.6,13.28,18.26,268.5
"2010-10-18 00:40:30",256702,7.285,302.7,1.925,0.227,17.62,107.097,17.44,18.36,23.48,0,110.6,13.28,18.26,264.7
"2010-10-18 00:41:00",256703,7.056,307,1.444,0.18,17.63,107.097,17.44,18.36,23.44,0,110.6,13.28,18.26,269.0
"2010-10-18 00:41:30",256704,6.512,301.5,0.846,0.205,17.66,107.097,17.44,18.36,23.44,0,110.6,13.28,18.26,263.5
"2010-10-18 00:42:00",256705,6.238,303.9,1.669,0.128,17.67,107.097,17.44,18.35,23.45,0,110.6,13.28,18.26,265.9
"2010-10-18 00:42:30",256706,6.406,302.7,2.23,0.149,17.75,107.097,17.44,18.36,23.35,0,110.6,13.28,18.26,264.7
"2010-10-18 00:43:00",256707,6.807,309.1,1.974,0.248,17.65,107.097,17.44,18.36,23.31,0,110.6,13.28,18.26,271.1
"2010-10-18 00:43:30",256708,6.532,310.9,4.4,0.345,17.72,107.097,17.44,18.36,23.26,0,110.6,13.28,18.26,272.9
"2010-10-18 00:44:00",256709,6.034,319.4,2.167,0.394,17.75,107.0975,17.45,18.36,23.02,0,110.6,13.28,18.26,281.4
"2010-10-18 00:44:30",256710,5.615,321.8,1.671,0.145,17.71,107.1117,17.48,18.38,22.96,0,110.6,13.28,18.29,283.8
"2010-10-18 00:45:00",256711,6.081,322.9,1.683,0.26,17.62,107.1198,17.5,18.38,23.18,0,110.6,13.28,18.32,284.9
"2010-10-18 00:45:30",256712,6.503,324.4,1.706,0.293,17.64,107.1047,17.46,18.38,23.24,0,110.6,13.28,18.28,286.4
"2010-10-18 00:46:00",256713,7.119,325.8,1.452,0.109,17.61,107.0984,17.45,18.37,23.41,0,110.6,13.28,18.26,287.8
"2010-10-18 00:46:30",256714,6.92,328.5,1.092,0.267,17.73,107.0973,17.44,18.37,23.18,0,110.6,13.29,18.26,290.5
"2010-10-18 00:47:00",256715,6.625,323.9,2.04,0.235,17.67,107.0973,17.44,18.38,23.27,0,110.6,13.29,18.26,285.9
"2010-10-18 00:47:30",256716,6.855,322.2,1.532,0.181,17.54,107.0976,17.45,18.37,23.48,0,110.6,13.29,18.26,284.2
"2010-10-18 00:48:00",256717,7.916,321.1,1.136,0.457,17.51,107.0959,17.44,18.35,23.79,0,110.6,13.29,18.25,283.1
"2010-10-18 00:48:30",256718,8.51,319.1,0.994,0.113,17.59,107.0753,17.39,18.33,23.79,0,110.6,13.29,18.20,281.1
"2010-10-18 00:49:00",256719,8.16,320,1.346,0.192,17.62,107.0675,17.37,18.32,23.77,0,110.6,13.29,18.18,282.0
"2010-10-18 00:49:30",256720,8.31,318.7,1.871,0.167,17.58,107.0659,17.36,18.32,23.82,0,110.6,13.29,18.18,280.7
"2010-10-18 00:50:00",256721,8.13,318.9,0.657,0.101,17.61,107.0641,17.36,18.31,23.81,0,110.6,13.29,18.17,280.9
"2010-10-18 00:50:30",256722,7.858,319.3,1.615,0.285,17.59,107.0647,17.36,18.29,23.87,0,110.6,13.29,18.17,281.3
"2010-10-18 00:51:00",256723,7.54,319.3,2.273,0.165,17.59,107.0665,17.37,18.29,23.85,0,110.6,13.29,18.18,281.3
"2010-10-18 00:51:30",256724,7.389,323.1,2.11,0.123,17.57,107.0647,17.36,18.29,23.92,0,110.6,13.29,18.17,285.1
"2010-10-18 00:52:00",256725,7.118,319.8,1.223,0.192,17.55,107.0662,17.36,18.27,23.97,0,110.6,13.29,18.18,281.8
"2010-10-18 00:52:30",256726,6.739,322.4,3.791,0.24,17.48,107.0622,17.35,18.26,24.07,0,110.6,13.29,18.17,284.4
"2010-10-18 00:53:00",256727,6.889,319,2.029,0.308,17.53,107.0369,17.29,18.25,24.13,0,110.6,13.29,18.10,281.0
"2010-10-18 00:53:30",256728,6.651,317.7,1.669,0.237,17.5,107.0327,17.28,18.24,24.2,0,110.6,13.29,18.09,279.7
"2010-10-18 00:54:00",256729,6.407,318.3,1.827,0.169,17.6,107.0333,17.28,18.21,24.16,0,110.6,13.29,18.09,280.3
"2010-10-18 00:54:30",256730,6.32,316.3,1.77,0.215,17.54,107.0351,17.29,18.21,24.21,0,110.6,13.29,18.10,278.3
"2010-10-18 00:55:00",256731,6.94,314.5,1.316,0.448,17.57,107.0327,17.28,18.21,24.16,0,110.6,13.29,18.09,276.5
"2010-10-18 00:55:30",256732,7.302,315.3,0.95,0.293,17.48,107.0363,17.29,18.2,24.16,0,110.6,13.29,18.10,277.3
"2010-10-18 00:56:00",256733,7.432,316.7,1.179,0.12,17.5,107.0357,17.29,18.2,24.12,0,110.6,13.29,18.10,278.7
"2010-10-18 00:56:30",256734,7.175,315.3,1.672,0.267,17.52,107.0339,17.28,18.19,24.17,0,110.6,13.29,18.09,277.3
"2010-10-18 00:57:00",256735,6.505,313.5,1.179,0.137,17.57,107.0351,17.29,18.18,24.13,0,110.6,13.28,18.10,275.5
"2010-10-18 00:57:30",256736,6.323,317.5,2.114,0.214,17.54,107.0357,17.29,18.19,24.22,0,110.6,13.28,18.10,279.5
"2010-10-18 00:58:00",256737,6.451,310.9,2.003,0.261,17.39,107.0164,17.24,18.17,24.47,0,110.6,13.28,18.05,272.9
"2010-10-18 00:58:30",256738,6.74,312.7,1.522,0.343,17.48,107.0074,17.21,18.14,24.49,0,110.6,13.28,18.03,274.7
"2010-10-18 00:59:00",256739,7.199,312.4,1.94,0.198,17.58,107.0059,17.21,18.14,24.33,0,110.6,13.28,18.02,274.4
"2010-10-18 00:59:30",256740,7.454,313.6,1.322,0.256,17.49,107.0098,17.22,18.14,24.38,0,110.6,13.28,18.03,275.6
"2010-10-18 01:00:00",256741,7.321,311.8,2.639,0.228,17.6,107.0101,17.22,18.13,24.24,0,110.6,13.28,18.03,273.8
"2010-10-18 01:00:30",256742,7.55,314.5,2.236,0.316,17.45,107.011,17.22,18.14,24.41,0,110.6,13.28,18.04,276.5
"2010-10-18 01:01:00",256743,7.726,315.2,0.861,0.195,17.5,107.0116,17.22,18.12,24.42,0,110.6,13.28,18.04,277.2
"2010-10-18 01:01:30",256744,7.473,314.6,1.141,0.153,17.53,107.0146,17.23,18.13,24.34,0,110.6,13.28,18.04,276.6
"2010-10-18 01:02:00",256745,7.216,315,1.056,0.103,17.46,107.0164,17.24,18.13,24.5,0,110.6,13.29,18.05,277.0
"2010-10-18 01:02:30",256746,7.981,314.6,1.882,0.726,17.3,107.0159,17.24,18.12,24.77,0,110.6,13.29,18.05,276.6
"2010-10-18 01:03:00",256747,8.31,311.8,0.994,0.125,17.25,106.9903,17.17,18.1,25.21,0,110.6,13.29,17.98,273.8
"2010-10-18 01:03:30",256748,8.46,310.1,1.579,0.124,17.28,106.9839,17.15,18.08,25.3,0,110.6,13.29,17.97,272.1
"2010-10-18 01:04:00",256749,8.37,312.8,1.052,0.11,17.25,106.9602,17.09,18.04,25.36,0,110.6,13.29,17.90,274.8
"2010-10-18 01:04:30",256750,8.01,314.6,1.263,0.167,17.32,106.9518,17.07,18.02,25.41,0,110.6,13.29,17.88,276.6
"2010-10-18 01:05:00",256751,8,314.9,0.506,0.167,17.39,106.9501,17.07,17.99,25.39,0,110.6,13.29,17.88,276.9
"2010-10-18 01:05:30",256752,7.404,312.9,2.007,0.172,17.17,106.9384,17.04,17.97,25.5,0,110.6,13.29,17.85,274.9
"2010-10-18 01:06:00",256753,8.08,312.2,1.721,0.256,17.21,106.9189,16.99,17.94,25.81,0,110.6,13.29,17.80,274.2
"2010-10-18 01:06:30",256754,8.31,313.7,1.993,0.285,17.29,106.9167,16.98,17.91,25.75,0,110.6,13.29,17.79,275.7
"2010-10-18 01:07:00",256755,9.1,315.2,1.28,0.404,17.23,106.89,16.91,17.88,26.03,0,110.6,13.29,17.72,277.2
"2010-10-18 01:07:30",256756,8.28,315.4,1.8,0.284,17.32,106.8869,16.91,17.86,25.9,0,110.6,13.29,17.72,277.4
"2010-10-18 01:08:00",256757,8.43,312.6,1.795,0.238,17.31,106.8863,16.9,17.84,25.91,0,110.6,13.29,17.71,274.6
"2010-10-18 01:08:30",256758,7.887,313.4,1.122,0.225,17.28,106.8869,16.91,17.83,25.98,0,110.6,13.29,17.72,275.4
"2010-10-18 01:09:00",256759,8.2,314.6,1.095,0.273,17.26,106.8869,16.91,17.81,25.94,0,110.6,13.29,17.72,276.6
"2010-10-18 01:09:30",256760,7.721,314.8,1.298,0.223,17.32,106.8872,16.91,17.82,25.87,0,110.6,13.29,17.72,276.8
"2010-10-18 01:10:00",256761,6.87,315.2,1.453,0.285,17.38,106.8884,16.91,17.81,25.79,0,110.6,13.29,17.72,277.2
"2010-10-18 01:10:30",256762,6.844,316.2,3.019,0.164,17.32,106.8884,16.91,17.81,25.81,0,110.6,13.29,17.72,278.2
"2010-10-18 01:11:00",256763,6.625,316.2,1.013,0.232,17.38,106.889,16.91,17.79,25.68,0,110.6,13.29,17.72,278.2
"2010-10-18 01:11:30",256764,6.362,315,1.229,0.194,17.27,106.8943,16.92,17.81,25.85,0,110.6,13.29,17.74,277.0
"2010-10-18 01:12:00",256765,5.987,316.7,3.043,0.447,16.97,106.8857,16.9,17.78,26.39,0,110.6,13.29,17.71,278.7
"2010-10-18 01:12:30",256766,5.375,318.6,2.948,0.206,17.03,106.8576,16.83,17.74,26.53,0,110.6,13.29,17.64,280.6
"2010-10-18 01:13:00",256767,5.276,318.4,3.442,0.354,16.99,106.8287,16.76,17.71,26.64,0,110.6,13.29,17.57,280.4
"2010-10-18 01:13:30",256768,4.483,318.6,5.838,0.447,16.85,106.8042,16.69,17.65,26.96,0,110.6,13.29,17.50,280.6
"2010-10-18 01:14:00",256769,3.781,323.7,10.56,0.675,16.73,106.7631,16.59,17.57,27.21,0,110.6,13.29,17.40,285.7
"2010-10-18 01:14:30",256770,3.07,331,11.03,0.707,16.9,106.7217,16.48,17.48,27.3,0,110.6,13.29,17.29,293.0
"2010-10-18 01:15:00",256771,1.7,19.96,16.87,0.707,16.89,106.6908,16.4,17.43,27.28,0,110.6,13.29,17.21,342.0
"2010-10-18 01:15:30",256772,1.408,58.16,11.98,0.691,16.9,106.6755,16.36,17.39,27.42,0,110.6,13.3,17.17,20.2
"2010-10-18 01:16:00",256773,0.455,121.8,42.17,0.363,16.97,106.6578,16.32,17.34,27.51,0,110.6,13.3,17.13,83.8
"2010-10-18 01:16:30",256774,0.455,157.1,36.75,0.404,17.01,106.6553,16.31,17.3,27.58,0,110.6,13.3,17.12,119.1
"2010-10-18 01:17:00",256775,0.274,343.5,14.29,0.213,17.05,106.6329,16.25,17.26,27.63,0,110.6,13.3,17.06,305.5
"2010-10-18 01:17:30",256776,0.217,322.4,46.46,0.256,17.07,106.6257,16.24,17.23,27.66,0,110.6,13.3,17.04,284.4
"2010-10-18 01:18:00",256777,1.006,2.416,14.6,0.415,17.09,106.6255,16.24,17.22,27.66,0,110.6,13.3,17.04,324.4
"2010-10-18 01:18:30",256778,1.928,327.3,16.43,0.614,16.97,106.6258,16.24,17.19,27.68,0,110.6,13.3,17.04,289.3
"2010-10-18 01:19:00",256779,2.058,310.3,12.36,0.432,17.04,106.6258,16.24,17.16,27.66,0,110.6,13.3,17.04,272.3
"2010-10-18 01:19:30",256780,2.927,336.4,9.16,0.637,17.11,106.6261,16.24,17.15,27.69,0,110.6,13.29,17.05,298.4
"2010-10-18 01:20:00",256781,3.253,334.2,11.91,0.901,17.47,106.6413,16.28,17.15,27.37,0,110.6,13.3,17.08,296.2
"2010-10-18 01:20:30",256782,4.336,321.7,4.663,0.259,17.59,106.6779,16.37,17.2,27.04,0,110.6,13.3,17.18,283.7
"2010-10-18 01:21:00",256783,3.993,322.6,3.272,0.269,17.61,106.7179,16.47,17.26,26.76,0,110.6,13.3,17.28,284.6
"2010-10-18 01:21:30",256784,3.156,324.1,4.4,0.251,17.66,106.7582,16.58,17.33,26.53,0,110.6,13.3,17.39,286.1
"2010-10-18 01:22:00",256785,2.619,314.2,2.061,0.339,17.55,106.7934,16.67,17.4,26.42,0,110.6,13.3,17.48,276.2
"2010-10-18 01:22:30",256786,1.298,306.8,15.43,0.415,17.06,106.7951,16.67,17.43,26.95,0,110.6,13.3,17.48,268.8
"2010-10-18 01:23:00",256787,0.922,308,34.06,0.431,17.07,106.7734,16.61,17.43,27.1,0,110.6,13.3,17.42,270.0
"2010-10-18 01:23:30",256788,0.261,238.7,49.62,0.362,17.08,106.7602,16.58,17.41,27.14,0,110.6,13.3,17.39,200.7
"2010-10-18 01:24:00",256789,0.337,31.65,60.87,0.329,17.2,106.7362,16.52,17.4,27.18,0,110.6,13.3,17.33,353.6
"2010-10-18 01:24:30",256790,0.35,234.7,86.9,0.316,17.22,106.7281,16.5,17.39,27.04,0,110.6,13.3,17.31,196.7
"2010-10-18 01:25:00",256791,0.41,356.3,40.31,0.504,17.18,106.7278,16.5,17.37,27.11,0,110.6,13.3,17.31,318.3
"2010-10-18 01:25:30",256792,1.209,25.67,13.21,0.193,17.16,106.7275,16.5,17.38,27.08,0,110.6,13.3,17.31,347.7
"2010-10-18 01:26:00",256793,1.461,26.24,8.32,0.356,17.25,106.7275,16.5,17.38,26.99,0,110.6,13.3,17.31,348.2
"2010-10-18 01:26:30",256794,1.603,26.02,17.35,0.314,17.19,106.73,16.5,17.39,27.04,0,110.6,13.3,17.31,348.0
"2010-10-18 01:27:00",256795,1.481,319,21.69,0.285,17.2,106.7278,16.5,17.39,27.07,0,110.6,13.3,17.31,281.0
"2010-10-18 01:27:30",256796,1.537,307.4,15.5,0.222,17.22,106.7278,16.5,17.37,27.1,0,110.6,13.3,17.31,269.4
"2010-10-18 01:28:00",256797,1.133,337.9,12.05,0.446,17.21,106.7275,16.5,17.37,27.13,0,110.6,13.3,17.31,299.9
"2010-10-18 01:28:30",256798,0.84,340,14.63,0.319,17.18,106.7275,16.5,17.38,27.13,0,110.6,13.31,17.31,302.0
"2010-10-18 01:29:00",256799,0.372,16.66,17.88,0.253,17.14,106.7275,16.5,17.37,27.14,0,110.6,13.31,17.31,338.7
"2010-10-18 01:29:30",256800,0.51,352,24.79,0.245,17.26,106.7275,16.5,17.37,27.16,0,110.6,13.3,17.31,314.0
"2010-10-18 01:30:00",256801,1.054,43.92,9.57,0.247,17.27,106.7275,16.5,17.36,27.09,0,110.6,13.31,17.31,5.9
"2010-10-18 01:30:30",256802,0.515,65.26,17.93,0.251,17.21,106.7275,16.5,17.37,27.1,0,110.6,13.3,17.31,27.3
"2010-10-18 01:31:00",256803,0.317,91,77.25,0.159,17.28,106.7275,16.5,17.35,27.05,0,110.6,13.3,17.31,53.0
"2010-10-18 01:31:30",256804,0.567,3.046,17.07,0.359,17.27,106.7275,16.5,17.37,27.07,0,110.6,13.3,17.31,325.0
"2010-10-18 01:32:00",256805,0.997,1.401,24.32,0.503,17.39,106.7275,16.5,17.36,26.9,0,110.6,13.29,17.31,323.4
"2010-10-18 01:32:30",256806,1.185,356.9,16.18,0.557,17.37,106.7391,16.53,17.37,26.77,0,110.6,13.29,17.34,318.9
"2010-10-18 01:33:00",256807,0.693,17.29,21.38,0.407,17.47,106.7599,16.58,17.4,26.64,0,110.6,13.29,17.39,339.3
"2010-10-18 01:33:30",256808,1.015,30.99,21.46,0.477,17.43,106.7616,16.58,17.43,26.59,0,110.6,13.29,17.39,353.0
"2010-10-18 01:34:00",256809,1.274,71.08,24.33,0.416,17.39,106.7698,16.61,17.44,26.59,0,110.6,13.3,17.42,33.1
"2010-10-18 01:34:30",256810,1.284,43.24,10.76,0.424,17.37,106.7892,16.65,17.46,26.57,0,110.6,13.29,17.47,5.2
"2010-10-18 01:35:00",256811,1.577,39.1,16.96,0.302,17.38,106.7948,16.67,17.49,26.49,0,110.6,13.3,17.48,1.1
"2010-10-18 01:35:30",256812,2.825,48.88,5.876,0.447,17.4,106.7951,16.67,17.5,26.29,0,110.6,13.3,17.48,10.9
"2010-10-18 01:36:00",256813,3.332,49.47,3.438,0.201,17.4,106.7951,16.67,17.53,26.2,0,110.6,13.31,17.48,11.5
"2010-10-18 01:36:30",256814,3.537,54.1,4.351,0.16,17.42,106.7996,16.68,17.54,26.13,0,110.6,13.31,17.49,16.1
"2010-10-18 01:37:00",256815,3.043,57.01,5.794,0.193,17.41,106.8191,16.73,17.56,26.07,0,110.6,13.31,17.54,19.0
"2010-10-18 01:37:30",256816,3.025,56.09,4.236,0.379,17.41,106.8289,16.76,17.58,26.03,0,110.6,13.31,17.57,18.1
"2010-10-18 01:38:00",256817,3.308,48.74,4.901,0.338,17.4,106.8289,16.76,17.59,25.98,0,110.6,13.31,17.57,10.7
"2010-10-18 01:38:30",256818,3.557,41.24,2.17,0.248,17.44,106.8292,16.76,17.6,25.91,0,110.6,13.31,17.57,3.2
"2010-10-18 01:39:00",256819,2.847,45.55,3.484,0.256,17.36,106.8332,16.77,17.62,25.86,0,110.6,13.31,17.58,7.5
"2010-10-18 01:39:30",256820,2.492,51.65,4.111,0.16,17.27,106.8326,16.77,17.63,25.83,0,110.6,13.31,17.58,13.7
"2010-10-18 01:40:00",256821,2.271,57.76,3.811,0.148,17.23,106.8292,16.76,17.64,25.93,0,110.6,13.31,17.57,19.8
"2010-10-18 01:40:30",256822,3.389,75.86,4.858,0.401,17.06,106.8281,16.75,17.63,26.17,0,110.6,13.31,17.57,37.9
"2010-10-18 01:41:00",256823,3.319,100.7,5.902,0.337,17.09,106.7965,16.67,17.59,26.39,0,110.5,13.31,17.48,62.7
"2010-10-18 01:41:30",256824,3.963,91.7,7.123,0.304,17.18,106.7892,16.65,17.56,26.41,0,110.6,13.31,17.47,53.7
"2010-10-18 01:42:00",256825,3.449,97,5.559,0.636,17.17,106.7619,16.58,17.54,26.4,0,110.6,13.31,17.39,59.0
"2010-10-18 01:42:30",256826,3.988,89.5,7.147,0.244,17.23,106.7613,16.58,17.52,26.36,0,110.6,13.31,17.39,51.5
"2010-10-18 01:43:00",256827,3.999,102.8,3.849,0.183,17.2,106.7605,16.58,17.5,26.51,0,110.6,13.31,17.39,64.8
"2010-10-18 01:43:30",256828,3.583,93.9,13.46,0.385,17.25,106.7602,16.58,17.5,26.42,0,110.5,13.31,17.39,55.9
"2010-10-18 01:44:00",256829,3.037,70.09,5.262,0.574,17.17,106.758,16.57,17.48,26.19,0,110.6,13.31,17.38,32.1
"2010-10-18 01:44:30",256830,2.319,91.9,12.04,0.314,17.2,106.743,16.54,17.46,26.3,0,110.6,13.31,17.35,53.9
"2010-10-18 01:45:00",256831,2.591,101.4,7.962,0.361,17.24,106.7388,16.53,17.45,26.26,0,110.6,13.31,17.34,63.4
"2010-10-18 01:45:30",256832,3.151,117.5,3.69,0.355,17.28,106.7453,16.54,17.46,26.31,0,110.6,13.31,17.35,79.5
"2010-10-18 01:46:00",256833,3.691,129.5,2.133,0.144,17.19,106.7515,16.56,17.44,26.54,0,110.6,13.31,17.37,91.5
"2010-10-18 01:46:30",256834,3.673,128.5,8.04,0.501,17.24,106.7492,16.55,17.45,26.49,0,110.5,13.31,17.36,90.5
"2010-10-18 01:47:00",256835,3.42,114.1,7.032,0.393,17.26,106.7557,16.57,17.46,26.42,0,110.5,13.31,17.38,76.1
"2010-10-18 01:47:30",256836,3.765,121.4,4.652,0.259,17.24,106.7596,16.58,17.45,26.42,0,110.6,13.31,17.39,83.4
"2010-10-18 01:48:00",256837,4.959,98,6.522,0.641,17.22,106.7546,16.57,17.45,26.61,0,110.5,13.31,17.38,60.0